DateTimeUTC,F1_A11,F1_S11,BsB_S11,BsG_S11,BsR_S11,BbsB_S11,BbsG_S11,BbsR_S11,BaB_A11,BaG_A11,BaR_A11,Tu_S11,T_S11,Uu_S11,U_S11,P_S11,T1_A11
2021-07-15T01:00:00Z,00000200,20000000,,,,,,,-000.01,-000.24,0000.15,18.4,25.1,10.5,07.0,0659.5,31.1
2021-07-15T01:01:00Z,00000200,20000000,,,,,,,0000.23,0000.01,0000.31,18.4,25.1,10.5,07.0,0659.5,31.0
2021-07-15T01:02:00Z,00000200,20000000,,,,,,,-000.27,-000.04,-000.47,18.4,25.1,10.5,07.0,0659.5,31.1
2021-07-15T01:03:00Z,00000200,60000000,,,,,,,0000.23,-000.17,0000.07,18.4,25.0,10.5,07.0,0659.5,31.0
2021-07-15T01:04:00Z,00000200,40000000,-000.35,0000.22,0000.19,0000.00,-000.22,0000.10,0000.00,-000.14,0000.05,18.4,24.9,10.5,07.1,0660.5,31.1
2021-07-15T01:05:00Z,00000200,00000000,-000.28,-000.25,-000.07,-000.32,0000.23,0000.16,0000.07,0000.76,0000.14,18.5,24.8,10.5,07.1,0660.6,31.0
2021-07-15T01:06:00Z,00000200,00000000,0000.17,-000.10,-000.07,-000.49,0000.23,-000.02,-000.20,0000.06,0000.36,18.5,24.8,10.6,07.2,0660.6,31.0
2021-07-15T01:07:00Z,00000200,00000000,-000.19,0000.24,-000.03,0000.30,-000.44,-000.12,0000.56,0000.09,-000.26,18.6,24.8,10.5,07.2,0660.6,31.0
2021-07-15T01:08:00Z,00000200,00000000,0000.32,-000.17,-000.11,0000.06,0000.09,-000.06,-000.16,-000.27,0000.09,18.7,24.9,10.4,07.1,0660.6,31.1
2021-07-15T01:09:00Z,00000200,00000000,-000.01,-000.17,0000.17,0000.35,0000.22,0000.14,-000.11,-000.04,0000.01,18.7,24.9,10.4,07.1,0660.6,31.1
2021-07-15T01:10:00Z,00000200,00000000,0000.04,0000.16,-000.42,0000.36,-000.02,-000.16,0000.24,0000.17,0000.04,18.8,25.0,10.4,07.2,0660.6,31.1
2021-07-15T01:11:00Z,00000200,00000000,0000.48,-000.19,-000.31,0000.08,0000.24,0000.24,-000.30,-000.26,-000.08,18.8,25.0,10.3,07.1,0660.6,31.1
2021-07-15T01:12:00Z,00000200,00000000,0000.59,-000.30,-000.24,-000.43,0000.12,-000.35,-000.11,0000.02,-000.16,18.8,25.0,10.4,07.1,0660.6,31.1
2021-07-15T01:13:00Z,00000200,00000000,0000.32,-000.20,0000.04,-000.30,-000.04,-000.09,0000.15,-000.29,-000.07,18.8,24.9,10.4,07.1,0660.6,31.1
2021-07-15T01:14:00Z,00000200,00000000,-000.67,-000.18,-000.56,-000.21,0000.16,-000.06,-000.02,0000.34,-000.08,18.8,24.9,10.4,07.1,0660.6,31.1
2021-07-15T01:15:00Z,00000200,00000000,-000.65,-000.15,-000.17,-000.38,0000.06,0000.09,0000.03,-000.11,0000.27,18.7,24.9,10.3,07.1,0660.6,31.1
2021-07-15T01:16:00Z,00000200,00000000,0000.11,-000.11,-000.08,0000.01,-000.02,0000.04,-000.33,0000.27,-000.35,18.7,24.9,10.3,07.1,0660.6,31.1
2021-07-15T01:17:00Z,00000200,00000000,-000.67,0000.08,0000.12,-000.32,-000.01,0000.15,0000.21,-000.33,0000.31,18.7,24.9,10.3,07.0,0660.6,31.1
2021-07-15T01:18:00Z,00000200,00000000,0000.35,0000.16,0000.15,-000.83,0000.16,0000.27,-000.16,-000.07,-000.06,18.7,24.9,10.3,07.0,0660.6,31.0
2021-07-15T01:19:00Z,00000200,00000000,0000.24,-000.13,0000.36,-000.18,0000.13,-000.01,-000.21,-000.01,-000.33,18.7,24.9,10.3,07.0,0660.6,31.1
2021-07-15T01:20:00Z,00000200,00000000,-000.36,0000.09,-000.24,-000.06,-000.19,-000.15,0000.56,0000.18,0000.14,18.6,24.9,10.3,07.0,0660.7,31.1
2021-07-15T01:21:00Z,00000200,00000000,0000.07,-000.12,-000.05,-000.30,-000.08,0000.22,-000.14,-000.13,-000.01,18.7,24.9,10.2,07.0,0660.7,31.0
2021-07-15T01:22:00Z,00000200,00000000,-000.36,0000.09,-000.09,-000.59,-000.02,-000.14,-000.40,-000.04,-000.08,18.7,24.9,10.2,07.0,0660.7,31.1
2021-07-15T01:23:00Z,00000200,00000000,0000.11,0000.14,-000.47,-000.08,0000.28,-000.12,0000.14,0000.02,0000.09,18.7,24.9,10.1,06.9,0660.7,31.1
2021-07-15T01:24:00Z,00000200,00000000,0000.08,-000.18,0000.23,-000.08,0000.23,0000.05,0000.08,0000.19,0000.01,18.7,24.9,10.2,07.0,0660.7,31.1
2021-07-15T01:25:00Z,00000200,00000000,-000.17,0000.03,-000.11,-000.16,-000.10,-000.18,0000.00,-000.34,-000.01,18.8,24.9,10.2,07.0,0660.7,31.1
2021-07-15T01:26:00Z,00000200,00000000,0000.19,-000.17,0000.02,0000.30,0000.17,-000.03,-000.09,0000.13,-000.07,18.8,24.9,10.1,06.9,0660.7,31.1
2021-07-15T01:27:00Z,00000200,00000000,0000.58,0000.08,0000.21,-000.49,-000.02,0000.07,-000.36,0000.05,-000.05,18.8,24.9,10.1,06.9,0660.7,31.1
2021-07-15T01:28:00Z,00000200,00000000,0000.43,-000.09,-000.13,-000.21,0000.05,0000.21,0000.25,-000.41,0000.12,18.7,24.9,10.0,06.9,0660.7,31.1
2021-07-15T01:29:00Z,00000200,00000000,-000.60,-000.12,-000.04,0000.04,-000.26,-000.18,-000.15,0000.17,0000.02,18.7,24.9,10.0,06.9,0660.7,31.1
2021-07-15T01:30:00Z,00000200,00000000,0000.08,-000.06,-000.10,0000.19,0000.15,0000.18,0000.17,0000.32,-000.21,18.7,24.9,10.0,06.9,0660.7,31.1
2021-07-15T01:31:00Z,00000200,00000000,0000.17,-000.24,0000.04,-000.27,0000.21,0000.23,0000.08,-000.41,0000.03,18.7,24.9,10.0,06.8,0660.7,31.0
2021-07-15T01:32:00Z,00000200,00000000,-000.08,-000.16,0000.16,0000.80,-000.25,0000.04,-000.19,-000.20,-000.11,18.6,24.9,10.0,06.8,0660.7,31.0
2021-07-15T01:33:00Z,00000200,00000000,0000.41,-000.15,0000.12,0000.13,-000.09,0000.16,-000.11,-000.04,0000.05,18.6,24.9,10.0,06.8,0660.7,31.0
2021-07-15T01:34:00Z,00000200,00000000,-000.08,-000.16,-000.00,0000.00,-000.25,0000.15,-000.01,0000.08,-000.28,18.6,24.9,10.0,06.8,0660.7,31.0
2021-07-15T01:35:00Z,00000200,00000000,0000.48,-000.40,-000.03,0000.05,0000.21,-000.14,-000.06,0000.10,0000.29,18.6,24.9,10.1,06.9,0660.7,31.0
2021-07-15T01:36:00Z,00000200,00000000,0000.13,-000.02,-000.05,0000.03,0000.09,-000.08,0000.46,0000.15,-000.15,18.6,24.9,10.0,06.8,0660.7,31.0
2021-07-15T01:37:00Z,00000200,00000000,0000.19,0000.06,0000.05,0000.27,-000.07,0000.22,-000.21,-000.18,0000.28,18.6,24.8,10.0,06.8,0660.7,31.0
2021-07-15T01:38:00Z,00000200,00000000,-000.10,-000.10,0000.12,0000.13,-000.04,0000.06,-000.31,0000.15,0000.01,18.6,24.8,10.0,06.8,0660.7,31.0
2021-07-15T01:39:00Z,00000200,00000000,-000.16,-000.10,-000.02,-000.25,-000.11,0000.24,0000.12,0000.05,-000.17,18.6,24.8,10.1,06.9,0660.7,31.0
2021-07-15T01:40:00Z,00000200,00000000,0000.09,-000.50,-000.05,-000.54,-000.03,0000.37,0000.20,0000.12,0000.02,18.6,24.8,10.1,06.9,0660.7,31.0
2021-07-15T01:41:00Z,00000200,00000000,-000.77,0000.09,0000.09,0000.44,-000.37,-000.07,0000.24,-000.09,0000.26,18.5,24.8,10.1,06.9,0660.7,31.0
2021-07-15T01:42:00Z,00000200,00000000,-000.18,0000.15,0000.06,-000.12,0000.25,-000.21,-000.18,-000.24,-000.25,18.5,24.8,10.0,06.8,0660.7,31.0
2021-07-15T01:43:00Z,00000200,00000000,0000.49,-000.23,-000.16,-000.54,-000.07,0000.07,-000.13,-000.06,0000.17,18.5,24.8,10.1,06.9,0660.7,31.0
2021-07-15T01:44:00Z,00000200,00000000,-000.21,0000.10,-000.22,-000.13,-000.23,-000.22,0000.22,0000.09,-000.26,18.5,24.8,10.1,06.9,0660.7,31.0
2021-07-15T01:45:00Z,00000200,00000000,0000.29,0000.30,0000.12,0000.29,-000.04,0000.32,-000.36,0000.05,0000.13,18.5,24.8,10.1,06.9,0660.7,31.0
2021-07-15T01:46:00Z,00000200,00000000,0000.48,-000.13,-000.22,0000.17,0000.12,-000.15,0000.16,0000.18,-000.33,18.5,24.8,10.1,06.8,0660.7,31.0
2021-07-15T01:47:00Z,00000200,00000000,0000.44,0000.04,-000.08,-000.00,-000.01,-000.00,-000.20,-000.14,0000.05,18.5,24.7,10.1,06.9,0660.7,31.0
2021-07-15T01:48:00Z,00000200,00000000,0000.27,-000.21,0000.14,0000.06,-000.02,-000.01,-000.02,-000.18,0000.24,18.5,24.8,10.1,06.9,0660.7,31.0
2021-07-15T01:49:00Z,00000200,00000000,-000.26,0000.06,-000.29,0000.09,0000.04,-000.23,0000.31,0000.02,-000.02,18.4,24.8,10.1,06.9,0660.7,31.0
2021-07-15T01:50:00Z,00000200,00000000,0000.46,0000.01,0000.02,0000.16,0000.31,0000.25,-000.16,0000.23,-000.31,18.4,24.7,10.1,06.9,0660.7,31.0
2021-07-15T01:51:00Z,00000200,00000000,0000.22,0000.03,0000.00,0000.02,0000.08,0000.17,0000.19,0000.01,0000.22,18.4,24.7,10.1,06.9,0660.7,31.0
2021-07-15T01:52:00Z,00000200,00000000,0001.04,0000.04,0000.10,0000.23,0000.03,-000.10,-000.03,0000.08,0000.23,18.5,24.7,10.0,06.9,0660.7,31.0
2021-07-15T01:53:00Z,00000200,00000000,-000.95,-000.26,-000.02,-000.24,0000.22,-000.02,0000.20,0000.18,-000.06,18.6,24.8,10.0,06.8,0660.7,31.0
2021-07-15T01:54:00Z,00000200,00000000,0000.18,-000.16,-000.04,-000.48,-000.04,-000.21,-000.00,0000.02,0000.08,18.7,24.8,09.9,06.8,0660.7,31.1
2021-07-15T01:55:00Z,00000200,00000000,-000.33,-000.04,0000.16,-000.08,-000.37,0000.19,-000.10,0000.13,0000.22,18.8,24.9,09.9,06.8,0660.7,31.1
2021-07-15T01:56:00Z,00000200,00000000,0000.20,0000.01,-000.04,-000.02,0000.19,-000.14,0000.00,-000.24,-000.35,18.8,24.9,09.9,06.8,0660.8,31.1
2021-07-15T01:57:00Z,00000200,40000000,,,,,,,-000.23,-000.25,0000.15,18.9,24.9,10.1,07.0,0660.7,31.1
2021-07-15T01:58:00Z,00000200,60000000,,,,,,,0000.21,-000.03,-000.17,18.6,25.0,09.9,06.7,0659.8,31.1
2021-07-15T01:59:00Z,00000200,20000000,,,,,,,-000.19,0000.06,-000.23,18.6,25.1,09.8,06.6,0659.8,31.1
